Home   Weather   Colonia   Past weeks

Flag for Micronesia Past Weather in Colonia, Yap, Micronesia — Yesterday and Last 2 Weeks

Now
78 °F

Mostly cloudy.


Feels Like: 80 °F
Forecast: 81 / 85 °F
Wind: 5 mph from North

Location: Yap Island

Current Time: Feb 25, 2017 at 9:37:19 pm

Latest Report: Feb 25, 2017 at 8:54 pm


Visibility: 12 mi

Pressure: 29.83 "Hg

Humidity: 93%

Dew Point: 76 °F

Location of ColoniaLocation

Past Weather in Colonia — Graph

°F

Colonia Temperature Yesterday

Maximum temperature yesterday: 86 °F (at 2:52 pm)
Minimum temperature yesterday: 78 °F (at 9:57 am)
Average temperature yesterday: 82 °F

High & Low Weather Summary for the Past Weeks

 TemperatureHumidityPressure
High87 °F (Feb 23, 12:50 pm)100% (Feb 21, 9:31 am)29.97 "Hg (Feb 21, 9:31 am)
Low73 °F (Feb 17, 8:03 pm)71% (Feb 20, 11:52 am)29.73 "Hg (Feb 10, 7:51 pm)
Average81 °F87%29.86 "Hg
* Reported Feb 10 7:51 pm — Feb 25 7:53 pm, Colonia, Weather by CustomWeather, © 2017

Note: Actual official high and low records may vary slightly from our data, if they occured in-between our weather recording intervals... More about our weather records

Advertising

Colonia Weather History for the Previous 24 Hours

Scroll right to see more
 ConditionsComfort  
Time TempWeatherWind HumidityBarometerVisibility
7:53 pm
Sat, Feb 25
78 °FCloudy.6 mph95%29.80 "Hg12 mi
6:57 pm80 °FCloudy.5 mph89%29.79 "Hg12 mi
5:50 pm80 °FCloudy.5 mph90%29.78 "Hg12 mi
4:50 pm79 °FCloudy.6 mph91%29.78 "Hg12 mi
3:50 pm78 °FSprinkles. Cloudy.6 mph95%29.78 "Hg9 mi
2:52 pm77 °FSprinkles. Cloudy.9 mph94%29.81 "Hg8 mi
2:05 pm77 °FSprinkles. Cloudy.9 mph94%29.81 "Hg8 mi
1:50 pm78 °FThunderstorms. Cloudy.9 mph94%29.84 "Hg8 mi
1:12 pm77 °FThunderstorms. Cloudy.6 mph94%29.83 "Hg8 mi
12:50 pm79 °FCloudy.5 mph92%29.84 "Hg12 mi
11:50 am79 °FCloudy.9 mph92%29.84 "Hg12 mi
10:50 am78 °FSprinkles. Mostly cloudy.8 mph94%29.87 "Hg8 mi
9:52 am80 °FSprinkles. Cloudy.6 mph89%29.86 "Hg10 mi
8:50 am81 °FCloudy.16 mph84%29.84 "Hg12 mi
7:51 am80 °FOvercast.14 mph87%29.83 "Hg12 mi
6:52 am79 °FOvercast.14 mph89%29.80 "Hg12 mi
5:50 am79 °FOvercast.9 mph89%29.79 "Hg12 mi
4:52 am79 °FSprinkles. Overcast.8 mph93%29.79 "Hg7 mi
3:51 am82 °FOvercast.12 mph82%29.79 "Hg12 mi
2:52 am81 °FOvercast.9 mph85%29.80 "Hg12 mi
1:50 am82 °FOvercast.10 mph83%29.81 "Hg12 mi
12:50 am82 °FMostly cloudy.12 mph81%29.85 "Hg12 mi
11:50 pm
Fri, Feb 24
82 °FMostly cloudy.9 mph83%29.86 "Hg12 mi
10:55 pm82 °FMostly cloudy.9 mph81%29.86 "Hg12 mi
9:52 pm82 °FMostly cloudy.9 mph83%29.87 "Hg12 mi
Weather by CustomWeather, © 2017

See weather overviewHow to use our weather pages